Belize, Belize

4:49 AM CST on August 20, 2017 (GMT -0600)
Philip S W Goldson International

Weather History for MZBZ - November, 2012

Change the Weather History Date:

Saturday, November 24, 2012

  Actual Average Record
Temperature  
Mean Temperature 71 °F -  
Max Temperature 80 °F 83 °F 87 °F (2001)
Min Temperature 62 °F 69 °F 60 °F (2005)
Cooling Degree Days 6    
Growing Degree Days 21 (Base 50)    
Moisture  
Dew Point 62 °F    
Average Humidity 69    
Maximum Humidity 100    
Minimum Humidity 38    
Precipitation  
Precipitation 0.00 in 0.23 in - ()
Sea Level Pressure  
Sea Level Pressure 30.10 in    
Wind  
Wind Speed 5 mph ()    
Max Wind Speed 13 mph    
Max Gust Speed -    
Visibility 9.1 miles    
Events      
Averages and records for this station are not official NWS values.
T = Trace of Precipitation, MM = Missing Value Source: Averaged Metar Reports

Daily Weather History Graph

Daily Weather History Graph

Search for Another Location

Airport or City:

Trip Planner

Search our weather history database for the weather conditions in past years. The results will help you decide how hot, cold, wet, or windy it might be!

Date:

Astronomy

Nov. 24, 2012 Rise Set
Actual Time 6:03 AM CST 5:16 PM CST
Civil Twilight 5:40 AM CST 5:39 PM CST
Nautical Twilight 5:13 AM CST 6:06 PM CST
Astronomical Twilight 4:47 AM CST 6:32 PM CST
Moon 2:40 PM CST (11/24) 2:44 AM CST (11/24)
Length of Visible Light 11h 59m
Length of Day
11h 12m
Waxing Gibbous, 87% of the Moon is Illuminated
Nov 24
Waxing Gibbous
Nov 28
Full
Dec 6
Last Quarter
Dec 13
New
Dec 19
First Quarter

Hourly Weather History & Observations

Time (CST) Temp. Heat Index Dew Point Humidity Pressure Visibility Wind Dir Wind Speed Gust Speed Precip Events Conditions
12:00 AM 70 °F - 63 °F 73% 30.10 in 12 mi Calm Calm - -   Scattered Clouds
3:00 AM 66 °F - 64 °F 89% 30.07 in 12 mi NNW 4.6 mph - -   Clear
5:00 AM 62.6 °F - 62.6 °F 100% 30.09 in - WSW 2.3 mph - N/A   Clear
6:00 AM 63 °F - 62 °F 94% 30.12 in 12 mi WSW 2.3 mph - -   Scattered Clouds
6:00 AM 62.6 °F - 62.6 °F 100% 30.09 in - WSW 2.3 mph - N/A   Clear
7:00 AM 62.6 °F - 62.6 °F 100% 30.12 in 6.2 mi West 3.5 mph - N/A   Scattered Clouds
8:00 AM 64.4 °F - 62.6 °F 94% 30.15 in 6.2 mi West 4.6 mph - N/A   Mostly Cloudy
9:00 AM 70 °F - 64 °F 75% 30.17 in 12 mi WNW 5.8 mph - -   Mostly Cloudy
9:00 AM 69.8 °F - 64.4 °F 83% 30.16 in 6.2 mi WNW 5.8 mph - N/A   Mostly Cloudy
10:00 AM 73.4 °F - 62.6 °F 69% 30.16 in - NNW 8.1 mph - N/A   Clear
11:00 AM 78.8 °F - 60.8 °F 54% 30.13 in 6.2 mi NNE 6.9 mph - N/A   Scattered Clouds
12:00 PM 80 °F - 59 °F 38% 30.12 in 16 mi ENE 11.5 mph - -   Mostly Cloudy
12:00 PM 80.6 °F 81.1 °F 59.0 °F 48% 30.12 in 6.2 mi ENE 11.5 mph - N/A   Mostly Cloudy
1:00 PM 80.6 °F 81.5 °F 60.8 °F 51% 30.08 in 6.2 mi ENE 11.5 mph - N/A   Scattered Clouds
2:00 PM 78.8 °F - 60.8 °F 54% 30.05 in 6.2 mi ENE 12.7 mph - N/A   Partly Cloudy
3:00 PM 80 °F - 61 °F 43% 30.04 in 16 mi ENE 11.5 mph - -   Partly Cloudy
3:00 PM 80.6 °F 81.5 °F 60.8 °F 51% 30.04 in 6.2 mi ENE 11.5 mph - N/A   Scattered Clouds
4:00 PM 80.6 °F 81.5 °F 60.8 °F 51% 30.04 in 6.2 mi NE 9.2 mph - N/A   Scattered Clouds
5:00 PM 78.8 °F - 62.6 °F 57% 30.04 in 6.2 mi East 5.8 mph - N/A   Scattered Clouds
6:00 PM 76 °F - 64 °F 58% 30.06 in 12 mi East 3.5 mph - -   Partly Cloudy
6:00 PM 77.0 °F - 64.4 °F 65% 30.05 in 6.2 mi East 3.5 mph - N/A   Scattered Clouds
9:00 PM 75 °F - 64 °F 62% 30.11 in 12 mi NE 3.5 mph - -   Partly Cloudy